Le nostre stazioni meteo in Italia

Pubblicità
Il mio iltempo24.it
Bologna, Italia (16132): Temperatura & dewpoint: 05.12.2018 02:00:00 - 11.12.2018 02:00:00 (CET)Bologna, Italia (16132): reduced air pressure: 05.12.2018 02:00:00 - 11.12.2018 02:00:00 (CET)Bologna, Italia (16132): precipitazioni: 05.12.2018 02:00:00 - 11.12.2018 02:00:00 (CET)
Data & Tempo tt [°C] td [°C] ppp [hPa] rr [mm]
11.12.2018 02:00:00 - - - -
11.12.2018 01:00:00 5,9 -5,9 1017,8 0,0
11.12.2018 00:00:00 7,6 - 1017,6 -
10.12.2018 23:00:00 7,9 -5,3 1017,7 -
10.12.2018 22:00:00 8,1 -3,9 1017,8 -
10.12.2018 21:00:00 8,7 -3,3 1017,7 -
10.12.2018 20:00:00 9,4 -3,0 1017,1 -
10.12.2018 19:00:00 9,9 -2,2 1016,6 0,0
10.12.2018 18:00:00 10,2 -1,6 1016,8 -
10.12.2018 17:00:00 11,5 -1,1 1016,6 -
10.12.2018 16:00:00 13,5 0,7 1016,3 -
10.12.2018 15:00:00 13,0 0,6 1016,2 -
10.12.2018 14:00:00 13,4 0,6 1016,1 -
10.12.2018 13:00:00 13,6 0,1 1016,1 0,0
10.12.2018 12:00:00 13,1 1,0 1015,9 -
10.12.2018 11:00:00 12,1 1,3 1015,8 -
10.12.2018 10:00:00 8,9 0,5 1016,0 -
10.12.2018 09:00:00 7,6 0,7 1014,9 -
10.12.2018 08:00:00 7,5 -0,8 1013,9 -
10.12.2018 07:00:00 11,1 -0,5 1013,0 0,0
10.12.2018 06:00:00 10,7 0,3 1011,9 -
10.12.2018 05:00:00 8,2 -1,2 1012,1 -
10.12.2018 04:00:00 10,0 -0,6 1011,8 -
10.12.2018 03:00:00 10,4 -0,2 1011,6 -
10.12.2018 02:00:00 11,0 -0,6 1010,9 -
10.12.2018 01:00:00 11,2 -1,4 1010,6 0,0
10.12.2018 00:00:00 12,2 -1,1 1010,1 -
09.12.2018 23:00:00 11,8 -1,1 1009,5 -
09.12.2018 22:00:00 12,0 -0,3 1009,6 -
09.12.2018 21:00:00 11,5 1,3 1009,1 -
09.12.2018 20:00:00 4,1 1,3 1008,8 -
09.12.2018 19:00:00 5,5 1,9 1008,5 0,0
09.12.2018 18:00:00 7,3 3,1 1008,4 -
09.12.2018 17:00:00 7,0 4,1 1008,8 -
09.12.2018 16:00:00 8,2 4,9 1008,6 -
09.12.2018 15:00:00 8,0 4,2 1007,9 -
09.12.2018 14:00:00 9,2 4,2 1007,3 -
09.12.2018 13:00:00 8,7 4,7 1007,0 0,0
09.12.2018 12:00:00 5,0 2,1 1007,6 -
09.12.2018 11:00:00 3,9 1,1 1007,7 -
09.12.2018 10:00:00 2,9 0,1 1007,6 -
09.12.2018 09:00:00 1,6 -1,5 1007,7 -
09.12.2018 08:00:00 1,1 -3,3 1007,9 -
09.12.2018 07:00:00 1,5 -3,8 1008,7 0,0
09.12.2018 06:00:00 2,3 -4,3 1009,3 -
09.12.2018 05:00:00 4,4 -4,7 1010,3 -
09.12.2018 04:00:00 7,7 -2,7 1011,7 -
09.12.2018 03:00:00 8,6 -2,8 1013,2 -
09.12.2018 02:00:00 6,8 -4,1 1013,7 -
09.12.2018 01:00:00 7,7 -3,9 1014,1 0,0
09.12.2018 00:00:00 7,7 -3,9 1014,8 -
08.12.2018 23:00:00 7,7 -3,9 1015,1 -
08.12.2018 22:00:00 8,4 -3,3 1015,5 -
08.12.2018 21:00:00 8,3 -2,5 1015,8 -
08.12.2018 20:00:00 8,0 -1,4 1015,8 -
08.12.2018 19:00:00 8,1 -0,8 1015,6 0,0
08.12.2018 18:00:00 9,2 0,5 1015,4 -
08.12.2018 17:00:00 11,0 0,3 1015,4 -
08.12.2018 16:00:00 14,2 1,4 1015,0 -
08.12.2018 15:00:00 14,6 1,4 1014,3 -
08.12.2018 14:00:00 14,0 2,8 1014,2 -
08.12.2018 13:00:00 12,9 2,6 1014,0 0,0
08.12.2018 12:00:00 10,7 3,6 1014,0 -
08.12.2018 11:00:00 8,9 5,8 1013,9 -
08.12.2018 10:00:00 7,0 4,6 1013,4 -
08.12.2018 09:00:00 6,8 4,4 1012,8 -
08.12.2018 08:00:00 6,1 3,7 1011,5 -
08.12.2018 07:00:00 6,0 3,6 1010,7 0,0
08.12.2018 06:00:00 6,4 4,0 1009,8 -
08.12.2018 05:00:00 6,5 4,1 1010,5 -
08.12.2018 04:00:00 6,6 4,2 1008,9 -
08.12.2018 03:00:00 6,9 4,5 1009,4 -
08.12.2018 02:00:00 6,8 4,3 1009,1 -
08.12.2018 01:00:00 6,9 4,3 1010,4 0,0
08.12.2018 00:00:00 7,3 4,7 1012,6 -
07.12.2018 23:00:00 7,4 4,8 1013,0 -
07.12.2018 22:00:00 7,1 4,5 1014,0 -
07.12.2018 21:00:00 6,7 4,2 1015,4 -
07.12.2018 20:00:00 6,8 4,1 1016,2 -
07.12.2018 19:00:00 7,8 5,1 1017,2 0,0
07.12.2018 18:00:00 8,4 5,6 1018,2 -
07.12.2018 17:00:00 9,1 6,0 1019,0 -
07.12.2018 16:00:00 10,4 6,1 1019,2 -
07.12.2018 15:00:00 10,9 7,5 1019,9 -
07.12.2018 14:00:00 9,8 6,8 1020,8 -
07.12.2018 13:00:00 9,1 6,2 1021,7 0,0
07.12.2018 12:00:00 8,2 5,6 1022,9 -
07.12.2018 11:00:00 7,4 5,0 1023,7 -
07.12.2018 10:00:00 7,0 4,6 1023,9 -
07.12.2018 09:00:00 5,8 3,4 1023,8 -
07.12.2018 08:00:00 4,3 1,6 1023,7 -
07.12.2018 07:00:00 5,9 3,2 1023,5 0,0
07.12.2018 06:00:00 6,6 4,1 1023,5 -
07.12.2018 05:00:00 6,6 3,9 1024,0 -
07.12.2018 04:00:00 7,3 4,7 1024,1 -
07.12.2018 03:00:00 7,2 4,5 1024,5 -
07.12.2018 02:00:00 8,6 5,8 1024,8 -
07.12.2018 01:00:00 9,1 6,2 1025,2 0,0
07.12.2018 00:00:00 8,9 6,1 1025,4 -
06.12.2018 23:00:00 8,6 5,0 1025,4 -
06.12.2018 22:00:00 8,4 5,6 1025,8 -
06.12.2018 21:00:00 8,2 5,4 1025,4 -
06.12.2018 20:00:00 8,1 5,4 1025,0 -
06.12.2018 19:00:00 8,0 5,3 1024,4 0,0
06.12.2018 18:00:00 7,8 5,2 1024,1 -
06.12.2018 17:00:00 7,7 5,1 1024,1 -
06.12.2018 16:00:00 7,4 4,7 1024,2 -
06.12.2018 15:00:00 7,5 4,8 1024,0 -
06.12.2018 14:00:00 7,6 5,0 1023,4 -
06.12.2018 13:00:00 7,5 4,9 1023,5 0,0
06.12.2018 12:00:00 7,3 4,7 1023,7 -
06.12.2018 11:00:00 7,7 5,1 1023,8 -
06.12.2018 10:00:00 7,5 4,8 1023,8 -
06.12.2018 09:00:00 7,6 4,9 1023,5 -
06.12.2018 08:00:00 7,0 4,1 1023,0 -
06.12.2018 07:00:00 6,8 3,9 1023,1 0,0
06.12.2018 06:00:00 7,0 4,1 1023,1 -
06.12.2018 05:00:00 7,1 4,2 1023,6 -
06.12.2018 04:00:00 7,1 4,2 1023,8 -
06.12.2018 03:00:00 7,1 4,2 1024,6 -
06.12.2018 02:00:00 6,8 3,9 1024,9 -
06.12.2018 01:00:00 6,8 3,9 1025,3 0,0
06.12.2018 00:00:00 6,8 3,9 1026,0 -
05.12.2018 23:00:00 6,9 4,0 1026,2 -
05.12.2018 22:00:00 7,2 4,5 1026,2 -
05.12.2018 21:00:00 6,6 3,7 1026,3 -
05.12.2018 20:00:00 7,3 4,6 1025,9 -
05.12.2018 19:00:00 7,4 4,5 1025,9 0,0
05.12.2018 18:00:00 8,3 5,4 1025,9 -
05.12.2018 17:00:00 8,7 4,7 1026,1 -
05.12.2018 16:00:00 9,9 5,6 1025,9 -
05.12.2018 15:00:00 11,2 4,6 1025,3 -
05.12.2018 14:00:00 11,4 4,3 1025,4 -
05.12.2018 13:00:00 10,4 3,4 1026,0 0,0
05.12.2018 12:00:00 9,5 4,4 1026,5 -
05.12.2018 11:00:00 8,5 3,1 1026,6 -
05.12.2018 10:00:00 7,1 2,9 1026,4 -
05.12.2018 09:00:00 4,0 1,3 1026,6 -
05.12.2018 08:00:00 3,2 0,0 1025,5 -
05.12.2018 07:00:00 4,0 0,8 1024,7 0,0
05.12.2018 06:00:00 4,2 1,2 1024,1 -
05.12.2018 05:00:00 3,9 1,1 1023,9 -
05.12.2018 04:00:00 4,1 1,3 1023,8 -
05.12.2018 03:00:00 4,2 1,4 1023,3 -
05.12.2018 02:00:00 4,7 1,8 1023,0 -

tt = Temperatura
td = dewpoint
ppp = reduced air pressure
rr = precipitazioni

Stazioni seguenti

WeatherPro
AMSI
MeteoEarth